Simultaneous Nadir Overpasses (SNOs) Predictions

Prediction of SNOs between GOES-17 and METOP-A Satellite Orbit:

Table of predicted SNOs for the next 14.0 days since TLE Epoch: 7/6/2019
Index Date Time (GOES-17) GOES-17 Lat,Lon METOP-A Lat,Lon Distance(km) Time Diff (sec)
1 07/06/2019 06:27:56 0.01,-137.20 -0.73,-140.54 380.92 80
2 07/07/2019 06:04:38 0.02,-137.19 0.40,-135.56 186.14 80
3 07/08/2019 18:23:30 -0.02,-137.19 0.61,-140.15 336.57 80
4 07/09/2019 18:05:30 -0.03,-137.19 -0.47,-135.16 230.55 80
5 07/11/2019 06:24:32 0.02,-137.17 -0.55,-139.79 297.71 80
6 07/12/2019 06:01:12 0.03,-137.16 0.53,-134.80 268.88 80
7 07/13/2019 18:20:05 -0.02,-137.15 0.49,-139.39 254.92 80
8 07/14/2019 18:02:06 -0.03,-137.14 -0.65,-134.41 311.45 80
9 07/16/2019 06:21:07 0.03,-137.12 -0.37,-139.04 217.85 80
10 07/17/2019 05:57:48 0.04,-137.10 0.72,-134.05 347.97 80
11 07/18/2019 18:16:40 -0.04,-137.08 0.29,-138.64 176.96 80
12 07/19/2019 17:58:41 -0.05,-137.06 -0.79,-133.65 388.82 80




NCC Satellite Simultaneous Nadir Overpasses (SNOs) Prediction Service
